Location: Cucq
(50.4773°N, 1.6202°E)
Time: 17:02:38
(UTC+00:00)

Meteor 1-22 Rocket - Pass Details

Date: 07 August 2020
Orbit: 787 x 940 km, 81.2° (Epoch: 25 September)

Event Time Altitude Azimuth Distance (km) Brightness Sun altitude
Exits shadow 02:27:33 22° 191° (S) 1,682 5.2 -15.7°
Maximum altitude 02:31:05 90° 285° (WNW) 796 4.0 -15.4°
Drops below altitude 10° 02:36:26 10° 12° (NNE) 2,376 7.6 -14.8°
Sets 02:38:50 0° 13° (NNE) 3,322 8.5 -14.6°
